Satellite: AO-49
Catalog number: 27605
Epoch time:      05236.73916012
Element set:    0823
Inclination:      064.5580 deg
RA of node:       286.8985 deg
Eccentricity:    0.0076698
Arg of perigee:   226.2344 deg
Mean anomaly:     133.2393 deg
Mean motion:   14.72120559 rev/day
Decay rate:        6.9e-07 rev/day^2
Epoch rev:           14394
Checksum:              331

Satellite: SO-50
Catalog number: 27607
Epoch time:      05236.63343754
Element set:    0802
Inclination:      064.5590 deg
RA of node:       293.2302 deg
Eccentricity:    0.0077259
Arg of perigee:   224.9089 deg
Mean anomaly:     134.5766 deg
Mean motion:   14.71009570 rev/day
Decay rate:        7.5e-07 rev/day^2
Epoch rev:           14380
Checksum:              307

Satellite: AO-51
Catalog number: 28375
Epoch time:      05236.68745393
Element set:     325
Inclination:      098.2114 deg
RA of node:       296.5136 deg
Eccentricity:    0.0085209
Arg of perigee:   024.3990 deg
Mean anomaly:     336.1193 deg
Mean motion:   14.40474381 rev/day
Decay rate:        3.0e-07 rev/day^2
Epoch rev:            6047
Checksum:              303

/EX
SB KEPS @ AMSAT  $ORB05237.W
Orbital Elements  05237.WEATHER

HR AMSAT ORBITAL ELEMENTS FOR WEATHER SATELLITES
FROM WA5QGD FORT WORTH,TX August 25, 2005
Send SUBSCRIBE KEPS/UNSUBSCRIBE KEPS to majordomo@amsat.org only
BID: ORB05237.W
TO ALL RADIO AMATEURS BT

Satellite: NOAA-10
Catalog number: 16969
Epoch time:      05237.31010897
Element set:     854
Inclination:      098.7651 deg
RA of node:       243.2418 deg
Eccentricity:    0.0011626
Arg of perigee:   294.2348 deg
Mean anomaly:     065.7616 deg
Mean motion:   14.27266495 rev/day
Decay rate:        6.0e-07 rev/day^2
Epoch rev:           98495
Checksum:              332

Satellite: NOAA-11
Catalog number: 19531
Epoch time:      05237.46143282
Element set:     718
Inclination:      098.8448 deg
RA of node:       323.8757 deg
Eccentricity:    0.0012431
Arg of perigee:   110.4759 deg
Mean anomaly:     249.7755 deg
Mean motion:   14.14764276 rev/day
Decay rate:      -1.16e-06 rev/day^2
Epoch rev:           87272
Checksum:              324

Satellite: NOAA-12
Catalog number: 21263
Epoch time:      05237.31830027
Element set:     208
Inclination:      098.7058 deg
RA of node:       227.2241 deg
Eccentricity:    0.0012002
Arg of perigee:   226.0892 deg
Mean anomaly:     133.9308 deg
Mean motion:   14.25464322 rev/day
Decay rate:       -7.0e-07 rev/day^2
Epoch rev:           74209
Checksum:              260

Satellite: MET-3/5
Catalog number: 21655
Epoch time:      05237.84273951
Element set:     898
Inclination:      082.5543 deg
RA of node:       109.4694 deg
Eccentricity:    0.0014131
Arg of perigee:   060.5780 deg
Mean anomaly:     299.6810 deg
Mean motion:   13.17001768 rev/day
Decay rate:        5.1e-07 rev/day^2
Epoch rev:           67448
Checksum:              319

Satellite: MET-2/21
Catalog number: 22782
Epoch time:      05236.89848819
Element set:    0286
Inclination:      082.5488 deg
RA of node:       206.4725 deg
Eccentricity:    0.0020933
Arg of perigee:   292.7334 deg
Mean anomaly:     067.1634 deg
Mean motion:   13.83593745 rev/day
Decay rate:        3.0e-08 rev/day^2
Epoch rev:           60507
Checksum:              329

Satellite: OKEAN-4
Catalog number: 23317
Epoch time:      05237.81808850
Element set:     715
Inclination:      082.5409 deg
RA of node:       192.4579 deg
Eccentricity:    0.0020560
Arg of perigee:   268.0011 deg
Mean anomaly:     091.8885 deg
Mean motion:   14.82209188 rev/day
Decay rate:       5.04e-06 rev/day^2
Epoch rev:           58622
Checksum:              308

Satellite: NOAA-14
Catalog number: 23455
Epoch time:      05237.30087450
Element set:     730
Inclination:      099.0838 deg
RA of node:       286.7421 deg
Eccentricity:    0.0009724
Arg of perigee:   161.8786 deg
Mean anomaly:     198.2750 deg
Mean motion:   14.13589766 rev/day
Decay rate:       -8.5e-07 rev/day^2
Epoch rev:           54926
Checksum:              337

Satellite: SICH-1
Catalog number: 23657
Epoch time:      05236.73521398
Element set:    0519
Inclination:      082.5333 deg
RA of node:       334.3283 deg
Eccentricity:    0.0022326
Arg of perigee:   256.5095 deg
Mean anomaly:     103.3648 deg
Mean motion:   14.81214375 rev/day
Decay rate:       1.35e-06 rev/day^2
Epoch rev:           53810
Checksum:              287

Satellite: NOAA-15
Catalog number: 25338
Epoch time:      05237.46596239
Element set:     159
Inclination:      098.5137 deg
RA of node:       243.6946 deg
Eccentricity:    0.0010948
Arg of perigee:   152.2457 deg
Mean anomaly:     207.9309 deg
Mean motion:   14.24533787 rev/day
Decay rate:        4.8e-07 rev/day^2
Epoch rev:           37861
Checksum:              340

Satellite: RESURS
Catalog number: 25394
Epoch time:      05237.77016413
Element set:     166
Inclination:      098.5363 deg
RA of node:       304.9889 deg
Eccentricity:    0.0001054
Arg of perigee:   359.8553 deg
Mean anomaly:     000.2625 deg
Mean motion:   14.24076721 rev/day
Decay rate:        1.5e-07 rev/day^2
Epoch rev:           37035
Checksum:              288

Satellite: FENGYUN1
Catalog number: 25730
Epoch time:      05236.59746791
Element set:     495
Inclination:      098.6090 deg
RA of node:       235.6554 deg
Eccentricity:    0.0013584
Arg of perigee:   266.9595 deg
Mean anomaly:     093.0013 deg
Mean motion:   14.11797959 rev/day
Decay rate:      -1.84e-06 rev/day^2
Epoch rev:           32416
Checksum:              333

